Tracking 29040 objects as of 17-Jun-2024
HD Live streaming from Space Station
objects crossing your sky now

STARLINK-3868

Track STARLINK-3868 now!
10-day predictions
STARLINK-3868 is classified as:


NORAD ID: 52649
Int'l Code: 2022-052BD
Perigee: 546.0 km
Apogee: 547.8 km
Inclination: 53.2 °
Period: 95.4 minutes
Semi major axis: 6917 km
RCS: Unknown
Launch date: May 14, 2022
Source: United States (US)
Launch site: AIR FORCE EASTERN TEST RANGE (AFETR)
Your satellite tracking list
Your tracking list is empty




NASA's NSSDC Master Catalog

Two Line Element Set (TLE):
1 52649U 22052BD  24168.49279202  .00000676  00000-0  60569-4 0  9992
2 52649  53.2160 212.5295 0001254  92.6939 267.4196 15.08836122115852
Source of the keplerian elements: AFSPC